Regional Weather Roundup
Issued by NWS

Home | Current Version | Previous Version | Graphics & Text | Print | Product List | Glossary On
Versions: 1 2 3 4 5 6 7 8 9 10 11 12 13 14 15 16 17 18 19 20 21 22 23 24 25 26 27 28 29 30 31 32 33 34 35 36 37 38 39 40 41 42 43 44 45 46 47 48 49 50
000
ASUS43 KOAX 291210
RWRNE

WEATHER ROUNDUP FOR NEBRASKA
NATIONAL WEATHER SERVICE OMAHA NE
700 AM CDT THU SEP 29 2016

NOTES: SATELLITE DATA IS BEING USED TO AUGMENT CLOUD COVER ABOVE
       12000 FEET.
       "FAIR" INDICATES FEW OR NO CLOUDS BELOW 12,000 FEET WITH NO
       SIGNIFICANT WEATHER AND/OR OBSTRUCTIONS TO VISIBILITY.

  * THESE STATIONS DO NOT REPORT WEATHER SUCH AS RAIN...SNOW OR FOG.

NEZ001>004-019>022-054>056-291300-
NEBRASKA PANHANDLE

CITY           SKY/WX    TMP DP  RH WIND       PRES   REMARKS
SCOTTSBLUFF    CLEAR     46  37  71 E10       30.33F
6HR MIN TEMP:  46; 6HR MAX TEMP:  55;

ALLIANCE       CLEAR     40  37  89 SE6       30.35F
6HR MIN TEMP:  39; 6HR MAX TEMP:  48;

CHADRON        CLEAR     52  35  52 S5        30.32F
6HR MIN TEMP:  52; 6HR MAX TEMP:  60;

KIMBALL        CLEAR     46  42  85 S7        30.36F
SIDNEY         CLEAR     45  38  76 S7        30.37F
6HR MIN TEMP:  44; 6HR MAX TEMP:  52;

$$

NEZ057>060-069>072-079>082-291300-
SOUTHWEST NEBRASKA

CITY           SKY/WX    TMP DP  RH WIND       PRES   REMARKS
NORTH PLATTE   CLOUDY    36  35  96 CALM      30.43R
6HR MIN TEMP:  35; 6HR MAX TEMP:  44;

IMPERIAL       CLOUDY    40  36  86 SE7       30.40S
6HR MIN TEMP:  40; 6HR MAX TEMP:  50;

LEXINGTON      CLEAR     36  34  92 CALM      30.43R
MCCOOK         CLOUDY    39  37  92 NE3       30.42R
6HR MIN TEMP:  37; 6HR MAX TEMP:  48;

OGALLALA       CLEAR     41  36  84 E3        30.40S
$$

NEZ005>010-023>029-035>040-094-291300-
NORTH CENTRAL NEBRASKA

CITY           SKY/WX    TMP DP  RH WIND       PRES   REMARKS
VALENTINE      CLOUDY    38  36  92 NE5       30.41R WCI  34
6HR MIN TEMP:  37; 6HR MAX TEMP:  47;

AINSWORTH      CLOUDY    38  38 100 S3        30.42S
BROKEN BOW     CLEAR     35  34  96 CALM      30.43R
6HR MIN TEMP:  33; 6HR MAX TEMP:  43;

O`NEILL          N/A     37  36  96 W3        30.44R FOG
ORD            CLOUDY    34  32  92 CALM      30.43R
6HR MIN TEMP:  34; 6HR MAX TEMP:  42; 6HR PCP: TRACE;

THEDFORD       CLOUDY    36  34  95 CALM      30.42S
$$

NEZ041-046>049-061>064-073>077-083>087-291300-
SOUTH CENTRAL NEBRASKA

CITY           SKY/WX    TMP DP  RH WIND       PRES   REMARKS
GRAND ISLAND   CLOUDY    39  37  92 W3        30.44R
6HR MIN TEMP:  38; 6HR MAX TEMP:  46;

AURORA         CLEAR     39  39 100 NW5       30.42R
HASTINGS       CLEAR     40  37  89 CALM      30.43R
6HR MIN TEMP:  39; 6HR MAX TEMP:  48;

HEBRON         CLOUDY    40  39  96 CALM      30.42R
HOLDREGE       CLOUDY    37  36  94 CALM      30.43R
KEARNEY *      CLOUDY    41  36  81 NW5       30.43R
YORK           CLOUDY    39  39 100 CALM      30.43R
$$

NEZ011>018-030>034-042>045-291300-
NORTHEAST NEBRASKA

CITY           SKY/WX    TMP DP  RH WIND       PRES   REMARKS
NORFOLK        CLOUDY    38  36  92 W5        30.43R WCI  34
6HR MIN TEMP:  37; 6HR MAX TEMP:  44;

ALBION         CLOUDY    36  35  96 CALM      30.44R
BLAIR          CLEAR     48  46  93 N9        30.40R
FREMONT        CLEAR     43  42  97 CALM      30.42R
TEKAMAH        CLEAR     43  41  93 N3        30.42R
6HR MIN TEMP:  42; 6HR MAX TEMP:  47;

WAYNE          CLOUDY    36  35  97 CALM      30.44R
$$

NEZ050>053-065>068-078-088>093-291300-
SOUTHEAST NEBRASKA

CITY           SKY/WX    TMP DP  RH WIND       PRES   REMARKS
LINCOLN        CLEAR     43  41  93 CALM      30.43R
6HR MIN TEMP:  43; 6HR MAX TEMP:  51;

OMAHA EPPLEY   CLEAR     45  41  86 N7        30.41R
6HR MIN TEMP:  45; 6HR MAX TEMP:  49;

BEATRICE       CLEAR     43  42  97 NW5       30.40R
FALLS CITY     CLEAR     46  45  96 NW6       30.37R
6HR MIN TEMP:  46; 6HR MAX TEMP:  52;

NEBRASKA CITY  CLEAR     47  46  97 N7        30.39R
PLATTSMOUTH    CLEAR     46  43  91 NW3       30.40R
$$

NEZ044-045-051>053-067-291300-
OMAHA AREA

CITY           SKY/WX    TMP DP  RH WIND       PRES   REMARKS
OMAHA EPPLEY   CLEAR     45  41  86 N7        30.41R
6HR MIN TEMP:  45; 6HR MAX TEMP:  49;

BLAIR          CLEAR     48  46  93 N9        30.40R
FREMONT        CLEAR     43  42  97 CALM      30.42R
MILLARD        CLEAR     47  45  93 CALM      30.41R
OFFUTT AFB     CLEAR     45  45 100 NW7       30.40R
PLATTSMOUTH    CLEAR     46  43  91 NW3       30.40R
WAHOO          FAIR      44  42  95 NW6       30.41R
$$




USA.gov is the U.S. government's official web portal to all federal, state and local government web resources and services.